[[{"header":{"parameterUnit":"m.s-1","parameterCategory":1,"la1":30.2991,"la2":30.254,"lo1":-89.0895,"lo2":-89.0444,"dy":0.0017,"dx":0.0017,"nx":28,"ny":28,"refTime":"2024-04-20T21:00:00:Z","depth":0,"parameterNumber":2,"parameterNumberName":"U-component_of_WINDS"},"data":[0,0,0,0,0,0,0,0,0,0,0,0,0,0,0,0,0,0,0,0,0,0,0,0,0,0,0,0,0,0,0,0,0,0,0,0,0,0,0,0,0,0,0,0,0,0,0,0,0,0,0,0,0,0,0,0,0,0,1.1607,1.1606,0,1.1571,1.157,1.157,1.155,1.1549,1.1549,1.1549,1.1509,1.1508,1.1507,0,0,0,0,0,0,0,0,0,0,0,0,0,1.1656,1.1655,1.1607,1.1606,1.1606,1.1571,1.157,1.157,1.155,1.1549,1.1549,1.1549,1.151,1.1508,1.1507,0,0,0,0,0,0,0,0,0,0,0,0,0,1.1629,1.1655,1.1607,1.1592,1.159,1.1571,1.157,1.1569,1.155,1.1549,1.1549,1.1549,1.151,1.1509,1.1507,1.1499,0,0,1.1502,1.1502,0,0,0,0,0,0,0,0,1.163,1.1627,1.1594,1.1593,1.1591,1.1565,1.1573,1.1546,1.155,1.1565,1.1549,1.1549,1.1528,1.1525,1.1518,1.1497,1.1496,1.1502,1.1501,1.1501,1.15,0,0,0,0,0,0,0,1.1632,1.1628,1.1592,1.1594,1.1592,1.1586,1.1582,1.1568,1.1547,1.1563,1.1562,1.1558,1.1527,1.1519,1.1517,1.1495,1.1502,1.1501,1.15,1.1499,1.1466,1.1466,0,0,0,0,0,0,1.1637,1.163,1.1593,1.1591,1.1611,1.1585,1.1581,1.1573,1.1547,1.1543,1.1558,1.1557,1.1522,1.1519,1.1515,1.1504,1.1501,1.1499,1.1498,1.1466,1.1466,1.1466,0,0,0,0,0,0,1.1638,1.1634,1.1595,1.161,1.1605,1.1584,1.1576,1.1572,1.1565,1.1543,1.1539,1.1555,1.1522,1.1517,1.1504,1.1503,1.1499,1.1497,1.1466,1.1466,1.1466,1.1482,0,0,0,0,0,0,1.164,1.1634,1.1632,1.161,1.1604,1.1585,1.1576,1.1572,1.1563,1.1561,1.1539,1.1535,1.1521,1.1506,1.1502,1.15,1.1496,1.1466,1.1466,1.1466,1.1482,1.1483,1.1484,0,0,0,0,0,1.1641,1.1637,1.1632,1.1627,1.1601,1.1585,1.1581,1.1566,1.1563,1.156,1.1546,1.1536,1.1504,1.1505,1.15,1.1498,1.1466,1.1466,1.1466,1.1481,1.1483,1.1484,0,0,0,0,0,0,1.1657,1.1634,1.1628,1.1616,1.1603,1.1581,1.1577,1.1568,1.1554,1.1553,1.1535,1.153,1.1518,1.1506,1.1508,1.1489,1.1484,1.1483,1.1497,1.1498,1.1499,1.1502,1.1495,0,0,0,0,0,1.166,1.165,1.1629,1.1621,1.1615,1.1597,1.159,1.158,1.1564,1.1558,1.1543,1.1528,1.1514,1.1505,1.1492,1.148,1.1475,1.1477,1.1478,1.1479,1.1478,1.1471,1.1472,1.1466,1.1466,1.1466,0,0,1.1664,1.165,1.1645,1.1624,1.1613,1.1602,1.1592,1.1581,1.1573,1.1556,1.1542,1.1531,1.1512,1.15,1.1494,1.149,1.1478,1.1479,1.148,1.1478,1.1471,1.1472,1.1472,1.1466,1.1466,1.1466,0,0,1.1667,1.1656,1.1648,1.1637,1.1619,1.1608,1.1606,1.1586,1.1578,1.1564,1.1551,1.1541,1.1518,1.1505,1.1496,1.1495,1.1485,1.1491,1.1496,1.149,1.149,1.1491,1.149,1.149,1.1491,1.1491,1.1491,0,1.1674,1.1659,1.1645,1.1635,1.1626,1.1612,1.1603,1.1592,1.1571,1.1565,1.1562,1.1533,1.152,1.1504,1.1504,1.1497,1.1494,1.1493,1.1492,1.1492,1.1492,1.1491,1.1491,1.1491,1.1491,1.1491,1.1491,0,1.1669,1.1658,1.1653,1.1635,1.1625,1.1616,1.16,1.1592,1.1583,1.1572,1.1558,1.1542,1.1524,1.152,1.1511,1.1503,1.1502,1.1495,1.1489,1.1493,1.1492,1.1492,1.1493,1.1492,1.1492,1.1492,0,0,1.1679,1.1654,1.1652,1.1644,1.1624,1.1615,1.1605,1.159,1.1583,1.1569,1.156,1.1542,1.1536,1.1525,1.1515,1.1509,1.1509,1.1503,1.1503,1.1505,1.15,1.1504,1.1504,1.1503,1.1503,1.1503,1.1501,0,1.1679,1.1662,1.1649,1.1636,1.1626,1.1612,1.1604,1.159,1.1579,1.1568,1.1556,1.1543,1.1537,1.153,1.1524,1.151,1.1508,1.151,1.1493,1.1493,1.1498,1.1503,1.1508,1.1507,1.15,1.15,1.15,0,1.1676,1.1664,1.165,1.1632,1.1627,1.162,1.1605,1.1595,1.1579,1.1572,1.1561,1.155,1.1538,1.1534,1.1517,1.1519,1.1512,1.1504,1.1504,1.1501,1.1496,1.15,1.1506,1.1506,1.15,1.15,1.15,0,1.1685,1.1665,1.1654,1.1647,1.1626,1.1621,1.1612,1.1597,1.1588,1.1575,1.1569,1.1554,1.1546,1.1534,1.1519,1.1518,1.1504,1.1499,1.1497,1.1497,1.1494,1.1494,1.1498,1.149,1.149,1.149,1.149,0,1.1686,1.1678,1.1658,1.1652,1.1642,1.1628,1.1619,1.1608,1.1595,1.1585,1.1573,1.1564,1.1545,1.1534,1.1522,1.151,1.1506,1.1499,1.1496,1.15,1.1501,1.1494,1.1494,1.149,1.149,1.149,1.149,0,1.1694,1.1681,1.1668,1.165,1.1645,1.1639,1.1622,1.1615,1.1604,1.1592,1.1588,1.157,1.1557,1.1541,1.1522,1.1514,1.1503,1.1498,1.1508,1.1506,1.1505,1.1505,1.1505,1.1504,1.1497,1.1497,1.1497,0,1.1695,1.1689,1.167,1.1663,1.1655,1.1644,1.1636,1.1621,1.1613,1.1595,1.159,1.1575,1.1563,1.1541,1.1526,1.1511,1.1506,1.1507,1.1504,1.1508,1.1506,1.1506,1.1505,1.1508,1.1508,1.1508,1.1508,0,1.1698,1.1692,1.1681,1.1668,1.1659,1.1647,1.1635,1.163,1.1613,1.1604,1.1591,1.1581,1.1563,1.1548,1.1532,1.1521,1.1512,1.151,1.1508,1.1512,1.1518,1.1514,1.151,1.1509,1.1509,1.1509,1.1509,1.1509,1.1702,1.1696,1.1682,1.167,1.166,1.165,1.1642,1.1631,1.1619,1.1603,1.1595,1.1582,1.1566,1.1544,1.1533,1.1522,1.1519,1.1517,1.1517,1.1516,1.1517,1.152,1.1519,1.1519,1.1519,1.1519,1.1519,0,1.1704,1.1695,1.1685,1.1669,1.166,1.1653,1.1639,1.1632,1.162,1.1607,1.1596,1.158,1.1566,1.1551,1.1536,1.153,1.1525,1.1526,1.1526,1.1524,1.1521,1.1524,1.153,1.153,1.153,1.153,1.153,1.153,1.1704,1.1694,1.1686,1.1671,1.1661,1.1648,1.1641,1.1631,1.1621,1.1604,1.1593,1.1584,1.1569,1.1553,1.154,1.1536,1.153,1.1533,1.1527,1.1525,1.1524,1.1523,1.1525,1.1532,1.1532,1.1531,1.1531,1.1531]},{"header":{"parameterUnit":"m.s-1","parameterCategory":1,"la1":30.2991,"la2":30.254,"lo1":-89.0895,"lo2":-89.0444,"dy":0.0017,"dx":0.0017,"nx":28,"ny":28,"refTime":"2024-04-20T21:00:00:Z","depth":0,"parameterNumber":3,"parameterNumberName":"V-component_of_WINDS"},"data":[0,0,0,0,0,0,0,0,0,0,0,0,0,0,0,0,0,0,0,0,0,0,0,0,0,0,0,0,0,0,0,0,0,0,0,0,0,0,0,0,0,0,0,0,0,0,0,0,0,0,0,0,0,0,0,0,0,0,-6.8028,-6.8029,0,-6.8074,-6.8075,-6.8075,-6.8017,-6.8015,-6.8013,-6.8011,-6.8053,-6.8056,-6.8059,0,0,0,0,0,0,0,0,0,0,0,0,0,-6.7885,-6.7888,-6.8028,-6.8029,-6.8029,-6.8074,-6.8075,-6.8075,-6.8017,-6.8015,-6.8012,-6.801,-6.8052,-6.8055,-6.8059,0,0,0,0,0,0,0,0,0,0,0,0,0,-6.794,-6.7889,-6.8028,-6.8006,-6.8004,-6.8074,-6.8075,-6.8075,-6.8018,-6.8015,-6.8012,-6.8009,-6.8051,-6.8055,-6.806,-6.8152,0,0,-6.8074,-6.8076,0,0,0,0,0,0,0,0,-6.7937,-6.7946,-6.8009,-6.8008,-6.8006,-6.8037,-6.8039,-6.8101,-6.8019,-6.8013,-6.8011,-6.8007,-6.805,-6.8054,-6.807,-6.8153,-6.8155,-6.8074,-6.8077,-6.8079,-6.808,0,0,0,0,0,0,0,-6.7934,-6.7943,-6.8046,-6.8009,-6.8008,-6.7992,-6.7996,-6.8051,-6.8048,-6.8013,-6.8009,-6.8015,-6.8048,-6.8065,-6.807,-6.8156,-6.8074,-6.8078,-6.8081,-6.8083,-6.8317,-6.832,0,0,0,0,0,0,-6.7933,-6.7941,-6.8045,-6.8047,-6.7963,-6.7997,-6.8002,-6.803,-6.8047,-6.8047,-6.8018,-6.8012,-6.8059,-6.8065,-6.8071,-6.818,-6.8079,-6.8083,-6.8086,-6.8313,-6.8318,-6.8321,0,0,0,0,0,0,-6.793,-6.7943,-6.8043,-6.7993,-6.8005,-6.8003,-6.8035,-6.8033,-6.8049,-6.8051,-6.805,-6.8036,-6.8057,-6.8065,-6.8132,-6.818,-6.8085,-6.809,-6.8309,-6.8315,-6.832,-6.8397,0,0,0,0,0,0,-6.7926,-6.7942,-6.7978,-6.7994,-6.8007,-6.8105,-6.8038,-6.8036,-6.8058,-6.8051,-6.8068,-6.8068,-6.8055,-6.8126,-6.8137,-6.8185,-6.8093,-6.8305,-6.8312,-6.8318,-6.8391,-6.8405,-6.8417,0,0,0,0,0,-6.7921,-6.7997,-6.798,-6.7993,-6.8053,-6.8108,-6.8115,-6.81,-6.8062,-6.8098,-6.8099,-6.8067,-6.8174,-6.8133,-6.8145,-6.8195,-6.8302,-6.831,-6.8317,-6.8385,-6.8402,-6.8416,0,0,0,0,0,0,-6.7985,-6.7999,-6.798,-6.8064,-6.8086,-6.8098,-6.8142,-6.8119,-6.8149,-6.8142,-6.812,-6.8124,-6.8196,-6.8202,-6.8157,-6.8285,-6.8231,-6.8242,-6.8278,-6.8295,-6.8308,-6.8304,-6.8097,0,0,0,0,0,-6.8009,-6.8054,-6.8063,-6.8136,-6.8148,-6.8144,-6.8167,-6.8154,-6.8174,-6.8182,-6.8188,-6.8208,-6.8245,-6.827,-6.8305,-6.8392,-6.8394,-6.8432,-6.8445,-6.8456,-6.8465,-6.851,-6.8527,-6.8347,-6.8347,-6.8347,0,0,-6.8059,-6.8072,-6.8101,-6.8149,-6.8164,-6.821,-6.8151,-6.8202,-6.8235,-6.8189,-6.8253,-6.8259,-6.8279,-6.8356,-6.839,-6.8364,-6.8515,-6.8466,-6.8474,-6.8477,-6.852,-6.8537,-6.8552,-6.8352,-6.8351,-6.835,0,0,-6.8172,-6.8188,-6.825,-6.8266,-6.829,-6.8287,-6.8302,-6.8318,-6.832,-6.8385,-6.8352,-6.839,-6.8456,-6.8471,-6.8488,-6.8608,-6.858,-6.862,-6.8688,-6.8732,-6.8747,-6.8759,-6.8801,-6.8817,-6.8629,-6.8629,-6.863,0,-6.823,-6.8299,-6.8284,-6.8338,-6.8359,-6.8322,-6.8384,-6.84,-6.8434,-6.8449,-6.8418,-6.85,-6.8511,-6.8591,-6.8621,-6.8636,-6.8651,-6.8618,-6.8746,-6.8758,-6.877,-6.881,-6.8826,-6.8634,-6.8634,-6.8633,-6.8633,0,-6.8369,-6.8417,-6.8465,-6.85,-6.8527,-6.8584,-6.8576,-6.8605,-6.859,-6.8589,-6.8655,-6.8667,-6.8704,-6.8722,-6.8707,-6.88,-6.8782,-6.875,-6.8695,-6.8792,-6.8829,-6.8844,-6.8641,-6.8639,-6.8638,-6.8637,0,0,-6.8523,-6.855,-6.8568,-6.8583,-6.8607,-6.8643,-6.8699,-6.8736,-6.8761,-6.8785,-6.883,-6.8887,-6.8857,-6.8876,-6.8862,-6.8901,-6.8995,-6.8864,-6.8864,-6.8887,-6.9097,-6.9121,-6.9139,-6.8977,-6.898,-6.8982,-6.9095,0,-6.8636,-6.8734,-6.8722,-6.8815,-6.8859,-6.8824,-6.8872,-6.8891,-6.8892,-6.8928,-6.8928,-6.8968,-6.8926,-6.8937,-6.8975,-6.8976,-6.9037,-6.8968,-6.9016,-6.9018,-6.9012,-6.9159,-6.9184,-6.929,-6.911,-6.9112,-6.9114,0,-6.8782,-6.8813,-6.8911,-6.8928,-6.8946,-6.899,-6.9023,-6.9058,-6.9079,-6.9076,-6.9098,-6.9077,-6.9131,-6.9077,-6.9149,-6.9103,-6.9122,-6.9126,-6.9129,-6.9132,-6.9071,-6.9164,-6.9324,-6.9339,-6.9137,-6.9135,-6.9133,0,-6.8883,-6.895,-6.9017,-6.9031,-6.9054,-6.9085,-6.9095,-6.9113,-6.9136,-6.9164,-6.9179,-6.9213,-6.9231,-6.9257,-6.9246,-6.9207,-6.932,-6.9265,-6.9319,-6.9319,-6.9343,-6.9341,-6.9507,-6.9358,-6.9357,-6.9357,-6.9357,0,-6.9011,-6.9071,-6.9063,-6.9104,-6.9171,-6.9156,-6.9222,-6.9228,-6.9244,-6.9284,-6.9256,-6.9294,-6.9277,-6.9313,-6.9304,-6.9366,-6.9374,-6.9373,-6.9369,-6.9375,-6.9375,-6.9386,-6.9378,-6.9361,-6.936,-6.936,-6.9359,0,-6.9135,-6.9132,-6.9203,-6.9219,-6.9224,-6.9272,-6.9285,-6.9322,-6.9321,-6.9373,-6.9384,-6.9382,-6.9423,-6.9415,-6.946,-6.9454,-6.953,-6.9518,-6.9524,-6.9521,-6.9574,-6.9569,-6.9752,-6.9775,-6.9612,-6.9614,-6.9615,0,-6.9216,-6.9263,-6.9284,-6.931,-6.9323,-6.9365,-6.9389,-6.9376,-6.9401,-6.9428,-6.9463,-6.9502,-6.9533,-6.96,-6.9602,-6.9636,-6.9624,-6.9685,-6.9628,-6.9632,-6.9623,-6.962,-6.9624,-6.9696,-6.9698,-6.97,-6.9701,0,-6.936,-6.9357,-6.9394,-6.943,-6.946,-6.9488,-6.9512,-6.9534,-6.9523,-6.9554,-6.9597,-6.9621,-6.9668,-6.9706,-6.9738,-6.9747,-6.9722,-6.9719,-6.9733,-6.9738,-6.9739,-6.9739,-6.9554,-6.9715,-6.9713,-6.9712,-6.9711,-6.9711,-6.9465,-6.9504,-6.9526,-6.9567,-6.9585,-6.9608,-6.9645,-6.9649,-6.9685,-6.9723,-6.9713,-6.9762,-6.978,-6.982,-6.9833,-6.9869,-6.9846,-6.9867,-6.9871,-6.9877,-6.9883,-6.9735,-6.9875,-6.9875,-6.9874,-6.9874,-6.9874,0,-6.9606,-6.9619,-6.9657,-6.9694,-6.9726,-6.9702,-6.9728,-6.9756,-6.98,-6.982,-6.9851,-6.99,-6.9938,-6.9943,-6.9978,-7.0006,-6.9995,-7.0016,-7.0013,-7.0015,-6.9902,-6.9886,-7.0024,-7.0024,-7.0024,-7.0024,-7.0024,-7.0023,-6.9684,-6.9749,-6.9748,-6.9821,-6.9832,-6.9881,-6.9898,-6.9919,-6.9935,-6.9992,-7.0023,-7.0027,-7.004,-7.0076,-7.0109,-7.011,-7.0123,-7.0148,-7.0144,-7.0038,-7.0023,-7.0009,-6.9993,-7.0151,-7.0151,-7.0253,-7.0254,-7.0255]}]]